カタログに戻る

STARLINK-31225

運用中通信VLEO
NORAD 59040·PAYLOAD·🇺🇸 United States

打ち上げ Feb 25, 2024 から Cape Canaveral Space Force Station

Loading…

次のパス (今後24時間)

TLE

最新Source: CelesTrak SupGP

元期: Sep 14, 2026, 15:01 UTC

1 59040C 24038T   26257.62618056 -.00049064  00000+0 -17776-2 0  2572
2 59040  43.0009  36.2739 0001265 272.0046 187.7675 15.27594110    18

AllMySatでSTARLINK-31225をリアルタイム追跡

Download on the App Store